Quillayute, WA
on Wednesday, January 30, 2013

Wednesday
Previous Day Next Day
Daily Summary
 ActualAverageRecord
Temperature
Mean Temperature °F 42°F  
Max Temperature 49°F 48°F 59°F (1993)
Min Temperature 46°F 36°F 13°F (1969)
Degree Days
Heating Degree Days 17 23  
Month to date heating degree days 762 702  
Since 1 July heating degree days 3090 3180  
Cooling Degree Days 0 0  
Month to date cooling degree days 0 0  
Year to date cooling degree days 0 0  
Moisture
Dew Point 45°F   
Average Humidity 90    
Maximum Humidity 93    
Minimum Humidity 86    
Precipitation
Precipitation 0.71 in 0.43 in 1.62 in (1973)
Month to date precipitation 9.91 14.18  
Year to date precipitation 9.91 14.18  
Wind
Wind Speed 2 mph   
Max Wind Speed 8 mph   
Max Gust Speed 9 mph   
Visibility 1 miles   
Events Fog , Rain   

Key: T is trace of precipitation, MM is missing value
Source: NWS Daily Summary
Time(PST)TemperatureDew PointHumidity Pressure Visibility Wind DirectionWind SpeedGust SpeedPrecipitationEvents Conditions
12:04 AM 46.4°F 42.8°F 87% 30.33 in 0.8 miles SSE 4.6 mph - 0.02 in Rain Light Rain
12:53 AM 46.0°F 43.0°F 89% 30.34 in 0.8 miles SSE 4.6 mph - 0.08 in Rain Light Rain
1:42 AM 46.4°F 42.8°F 87% 30.33 in 0.5 miles SSE 3.5 mph - 0.03 in Fog Fog
1:53 AM 46.0°F 44.1°F 93% 30.34 in 0.5 miles Calm Calm - 0.03 in Fog Fog
2:17 AM 46.4°F 44.6°F 93% 30.34 in 0.2 miles WSW 4.6 mph - 0.01 in Fog , Rain Light Rain
2:28 AM 48.2°F 44.6°F 87% 30.35 in 0.5 miles West 3.5 mph - 0.02 in Fog , Rain Light Rain
2:53 AM 48.0°F 45.0°F 89% 30.35 in 0.8 miles WSW 3.5 mph - 0.03 in   Mist
3:05 AM 48.2°F 44.6°F 87% 30.35 in 0.8 miles WSW 3.5 mph - N/A   Mist
3:20 AM 46.4°F 44.6°F 93% 30.35 in 1.0 miles Calm Calm - 0.01 in Rain Light Rain
3:28 AM 46.4°F 44.6°F 93% 30.34 in 0.8 miles Calm Calm - 0.02 in Rain Light Rain
3:53 AM 46.0°F 43.0°F 89% 30.35 in 0.5 miles ESE 3.5 mph - 0.03 in Fog , Rain Light Rain
4:17 AM 46.4°F 42.8°F 87% 30.35 in 0.8 miles Calm Calm - 0.04 in Rain Light Rain
4:53 AM 46.0°F 44.1°F 93% 30.35 in 0.5 miles SSE 3.5 mph - 0.08 in Fog , Rain Light Rain
5:34 AM 46.4°F 44.6°F 93% 30.34 in 0.8 miles SE 3.5 mph - 0.04 in Rain Light Rain
5:53 AM 46.0°F 44.1°F 93% 30.35 in 0.5 miles SE 3.5 mph - 0.05 in Fog , Rain Light Rain
6:07 AM 46.4°F 42.8°F 87% 30.35 in 1.0 miles Calm Calm - 0.02 in Rain Light Rain
6:20 AM 46.4°F 42.8°F 87% 30.35 in 0.8 miles Calm Calm - 0.03 in Rain Light Rain
6:53 AM 46.0°F 44.1°F 93% 30.36 in 0.8 miles Calm Calm - 0.06 in Rain Light Rain
7:53 AM 46.0°F 44.1°F 93% 30.37 in 0.5 miles Calm Calm - 0.03 in Fog , Rain Light Rain
8:07 AM 46.4°F 44.6°F 93% 30.36 in 0.2 miles Calm Calm - 0.01 in Fog , Rain Light Rain
8:37 AM 46.4°F 44.6°F 93% 30.37 in 0.5 miles Calm Calm - 0.04 in Fog , Rain Light Rain
8:53 AM 46.9°F 44.1°F 90% 30.37 in 0.8 miles Calm Calm - 0.05 in Rain Light Rain
9:01 AM 46.4°F 44.6°F 93% 30.36 in 1.0 miles Calm Calm - 0.01 in Rain Light Rain
9:27 AM 46.4°F 44.6°F 93% 30.37 in 0.8 miles South 3.5 mph - 0.03 in Rain Light Rain
9:41 AM 46.4°F 44.6°F 93% 30.38 in 0.5 miles Calm Calm - 0.04 in Fog , Rain Light Rain
9:53 AM 46.9°F 45.0°F 93% 30.38 in 0.5 miles Calm Calm - 0.05 in Fog , Rain Light Rain
10:53 AM 48.0°F 45.0°F 89% 30.39 in 0.5 miles South 5.8 mph - 0.03 in Fog , Rain Light Rain
11:53 AM 48.9°F 46.0°F 90% 30.40 in 0.5 miles SW 3.5 mph - 0.02 in Fog , Rain Light Rain
12:06 PM 48.2°F 46.4°F 93% 30.39 in 1.0 miles WSW 4.6 mph - 0.00 in   Mist
12:14 PM 48.2°F 46.4°F 93% 30.38 in 1.0 miles SW 3.5 mph - 0.00 in Rain Light Rain
12:16 PM 48.2°F 46.4°F 93% 30.38 in 0.8 miles SW 3.5 mph - 0.00 in Rain Light Rain
12:43 PM 48.2°F 46.4°F 93% 30.38 in 1.0 miles WSW 4.6 mph - 0.01 in   Mist
12:53 PM 48.0°F 46.0°F 93% 30.39 in 1.2 miles WSW 5.8 mph - 0.01 in   Overcast
1:06 PM 48.2°F 46.4°F 93% 30.39 in 0.5 miles WSW 6.9 mph - 0.00 in Fog , Rain Light Rain
1:40 PM 48.2°F 46.4°F 93% 30.38 in 0.8 miles WSW 5.8 mph - 0.01 in Rain Light Rain
1:53 PM 48.9°F 46.0°F 90% 30.39 in 0.8 miles SW 4.6 mph - 0.01 in Rain Light Rain
2:01 PM 48.2°F 46.4°F 93% 30.38 in 1.0 miles WSW 4.6 mph - 0.00 in Rain Light Rain
2:53 PM 48.0°F 46.0°F 93% 30.39 in 1.0 miles WSW 3.5 mph - 0.03 in Rain Light Rain
3:08 PM 48.2°F 46.4°F 93% 30.38 in 1.5 miles SW 4.6 mph - 0.01 in Rain Light Rain
3:14 PM 48.2°F 46.4°F 93% 30.38 in 1.2 miles WSW 5.8 mph - 0.01 in Rain Light Rain
3:25 PM 48.2°F 44.6°F 87% 30.38 in 1.0 miles WSW 4.6 mph - 0.01 in Rain Light Rain
3:53 PM 48.0°F 45.0°F 89% 30.39 in 0.8 miles West 4.6 mph - 0.01 in Rain Light Rain
4:19 PM 48.2°F 44.6°F 87% 30.38 in 1.2 miles SSW 3.5 mph - 0.01 in   Overcast
4:28 PM 48.2°F 44.6°F 87% 30.38 in 1.8 miles SW 5.8 mph - 0.01 in   Overcast
4:39 PM 48.2°F 44.6°F 87% 30.38 in 0.8 miles Calm Calm - 0.01 in   Overcast
4:53 PM 48.0°F 45.0°F 89% 30.38 in 0.8 miles SSW 3.5 mph - 0.02 in   Overcast
5:07 PM 48.2°F 44.6°F 87% 30.38 in 1.0 miles SSW 3.5 mph - N/A   Overcast
5:15 PM 48.2°F 44.6°F 87% 30.38 in 0.8 miles Calm Calm - N/A   Mist
5:28 PM 48.2°F 44.6°F 87% 30.38 in 1.2 miles Calm Calm - N/A   Overcast
5:49 PM 48.2°F 44.6°F 87% 30.38 in 0.8 miles Calm Calm - 0.01 in   Mist
5:53 PM 48.0°F 45.0°F 89% 30.39 in 1.0 miles SSW 3.5 mph - 0.01 in   Mist
6:14 PM 48.2°F 44.6°F 87% 30.38 in 0.8 miles Calm Calm - N/A   Mist
6:32 PM 48.2°F 44.6°F 87% 30.38 in 0.8 miles Calm Calm - N/A   Mist
6:53 PM 46.9°F 45.0°F 93% 30.39 in 0.8 miles Calm Calm - 0.01 in   Mist
7:08 PM 46.4°F 44.6°F 93% 30.38 in 1.0 miles Calm Calm - 0.01 in Rain Light Rain
7:18 PM 46.4°F 44.6°F 93% 30.38 in 0.8 miles Calm Calm - 0.01 in Rain Light Rain
7:33 PM 46.4°F 44.6°F 93% 30.39 in 1.0 miles Calm Calm - 0.02 in Rain Light Rain
7:53 PM 46.9°F 45.0°F 93% 30.39 in 1.0 miles SSW 3.5 mph - 0.03 in Rain Light Rain
8:53 PM 46.9°F 45.0°F 93% 30.40 in 0.8 miles Calm Calm - 0.03 in Rain Light Rain
9:04 PM 46.4°F 44.6°F 93% 30.39 in 0.5 miles Calm Calm - 0.01 in Fog , Rain Light Rain
9:24 PM 46.4°F 44.6°F 93% 30.39 in 0.8 miles Calm Calm - 0.02 in Rain Light Rain
9:32 PM 46.4°F 44.6°F 93% 30.39 in 1.2 miles Calm Calm - 0.02 in   Overcast
9:53 PM 46.9°F 45.0°F 93% 30.40 in 1.5 miles Calm Calm - 0.02 in   Overcast
10:08 PM 46.4°F 44.6°F 93% 30.39 in 0.8 miles Calm Calm - N/A   Mist
10:25 PM 46.4°F 44.6°F 93% 30.39 in 0.2 miles Calm Calm - N/A Fog Fog
10:53 PM 46.9°F 45.0°F 93% 30.38 in 0.2 miles Calm Calm - 0.00 in Fog , Rain Light Rain
11:53 PM 46.9°F 45.0°F 93% 30.40 in 0.2 miles SSW 3.5 mph - 0.00 in Fog Fog
Moon Phase
Jan. 30 Feb. 03 Feb. 10 Feb. 17 Feb. 25
Sunrise:07:47 AM (PST) Moon Rise:09:44 PM (PST)
Sunset:05:16 PM (PST) Moon Set:08:57 AM (PST)

Copyright © 2014 The Weather Underground, Inc.